This demonstration page uses our WeatherBlox Daily Observations layout. Learn more.

Left ArrowRight Arrow

Hourly Observations for February 7, 2021

Temp ( °F °C ) Dew Point ( °F °C ) Humidity (%) Winds ( mph kmh ) Pressure ( in mb ) Visibility ( mi km ) Precip ( " mm )
12:54 am 00:54 Cloudy -3 -19.4 -8 -22.2 79 79 N 5 7 30.3 1026 10 16.0934 0 0
1:54 am 01:54 Cloudy 0 -17.8 -5 -20.6 79 79 NNW 3 6 30.31 1026 10 16.0934 0 0
2:54 am 02:54 Cloudy 2 -16.7 -4 -20 76 76 N 5 7 30.34 1028 10 16.0934 0 0
3:32 am 03:32 Cloudy with Light Snow 3 -16.1 -4 -20 72 72 ENE 10 17 30.34 1027 2.5 4.02335 0.001 0.001
3:49 am 03:49 Cloudy with Light Snow 3 -16 -4 -20 72 72 ENE 6 9 30.36 1028 1.75 2.816345 0.01 0.254
3:54 am 03:54 Cloudy with Light Snow 3 -16.1 -4 -20 72 72 ENE 6 9 30.29 1026 1.75 2.816345 0.01 0.254
4:02 am 04:02 Cloudy with Light Snow 3 -16.1 -4 -20 72 72 ENE 6 9 30.37 1028 2.5 4.02335 0.001 0.001
4:09 am 04:09 Cloudy with Light Snow 3 -16.1 -4 -20 72 72 ENE 6 9 30.37 1028 3 4.82802 0.001 0.001
4:24 am 04:24 Cloudy with Light Snow 3 -16.1 -3 -19.4 76 76 NE 5 7 30.37 1028 2.5 4.02335 0.001 0.001
4:36 am 04:36 Cloudy with Light Snow 3 -16.1 -3 -19.4 76 76 E 7 11 30.36 1028 1.25 2.011675 0.001 0.001
4:41 am 04:41 Mostly Cloudy with Light Snow 3 -16.1 -4 -20 72 72 E 8 13 30.37 1028 0.75 1.207005 0.01 0.254
4:49 am 04:49 Mostly Cloudy with Snow 3 -16 -2 -19 78 78 E 9 15 30.37 1028 0.5 0.80467 0.01 0.254
4:54 am 04:54 Mostly Cloudy with Snow 3 -16.1 -3 -19.4 76 76 ENE 8 13 30.31 1026 0.5 0.80467 0.02 0.508
5:07 am 05:07 Mostly Cloudy with Light Snow 3 -16.1 -3 -19.4 76 76 E 6 9 30.38 1029 1 1.60934 0.01 0.254
5:25 am 05:25 Cloudy with Light Snow 2 -16.7 -3 -19.4 80 80 ESE 7 11 30.38 1029 1.25 2.011675 0.02 0.508
5:41 am 05:41 Mostly Cloudy with Light Snow 2 -16.7 -3 -19.4 80 80 ESE 7 11 30.38 1029 0.75 1.207005 0.03 0.762
5:54 am 05:54 Mostly Cloudy with Light Snow 3 -16.1 -3 -19.4 76 76 E 7 11 30.3 1026 0.75 1.207005 0.04 1.016
6:03 am 06:03 Mostly Cloudy with Light Snow 3 -16.1 -3 -19.4 76 76 E 8 13 30.37 1028 0.75 1.207005 0.01 0.254
6:14 am 06:14 Mostly Cloudy with Light Snow 2 -16.7 -3 -19.4 80 80 E 13 20 30.35 1028 1 1.60934 0.02 0.508
6:36 am 06:36 Cloudy with Light Snow 2 -16.7 -4 -20 76 76 E 10 17 30.34 1027 1.5 2.41401 0.02 0.508
6:46 am 06:46 Cloudy with Light Snow 2 -16.7 -4 -20 76 76 E 10 17 30.36 1028 1 1.60934 0.03 0.762
6:54 am 06:54 Mostly Cloudy with Light Snow 2 -16.7 -4 -20 76 76 E 10 17 30.3 1026 1 1.60934 0.03 0.762
7:05 am 07:05 Mostly Cloudy with Light Snow 2 -16.7 -3 -19.4 80 80 ENE 9 15 30.37 1028 1 1.60934 0.001 0.001
7:13 am 07:13 Mostly Cloudy with Snow 2 -16.7 -4 -20 76 76 E 10 17 30.37 1028 0.5 0.80467 0.01 0.254
7:28 am 07:28 Mostly Cloudy with Heavy Snow 2 -16.7 -4 -20 76 76 E 8 13 30.39 1029 0.25 0.402335 0.02 0.508
7:54 am 07:54 Mostly Cloudy with Heavy Snow 2 -16.7 -4 -20 76 76 E 10 17 30.34 1027 0.25 0.402335 0.03 0.762
8:54 am 08:54 Mostly Cloudy with Heavy Snow 2 -16.7 -4 -20 76 76 E 7 11 30.37 1028 0.25 0.402335 0.03 0.762
9:40 am 09:40 Mostly Cloudy with Heavy Snow 2 -16.7 -4 -20 76 76 ESE 10 17 30.41 1030 0.25 0.402335 0.01 0.254
9:45 am 09:45 Mostly Cloudy with Light Snow 2 -16.7 -4 -20 76 76 E 9 15 30.4 1029 0.75 1.207005 0.01 0.254
9:54 am 09:54 Cloudy with Light Snow 2 -16.7 -4 -20 76 76 E 9 15 30.35 1028 1.75 2.816345 0.02 0.508
10:14 am 10:14 Cloudy with Light Snow 3 -16.1 -4 -20 72 72 E 8 13 30.41 1030 2 3.21868 0.001 0.001
10:21 am 10:21 Cloudy with Light Snow 3 -16.1 -5 -20.6 69 69 E 13 20 30.4 1029 1.75 2.816345 0.001 0.001
10:54 am 10:54 Cloudy with Light Snow 3 -16.1 -4 -20 72 72 E 12 19 30.35 1028 1.25 2.011675 0.001 0.001
11:27 am 11:27 Cloudy with Light Snow 4 -15.6 -4 -20 69 69 E 10 17 30.37 1029 3 4.82802 0.01 0.254
11:54 am 11:54 Cloudy with Light Snow 4 -15.6 -3 -19.4 73 73 E 9 15 30.32 1027 5 8.0467 0.01 0.254
12:54 pm 12:54 Cloudy with Light Snow 5 -15 -3 -19.4 69 69 ESE 13 20 30.29 1026 7 11.26538 0.001 0.001
1:54 pm 13:54 Mostly Cloudy with Light Snow 5 -15 -2 -18.9 72 72 SE 14 22 30.26 1025 4 6.43736 0.001 0.001
2:54 pm 14:54 Cloudy with Light Snow 6 -14.4 -3 -19.4 66 66 E 13 20 30.24 1024 10 16.0934 0.001 0.001
3:54 pm 15:54 Cloudy 6 -14.4 -3 -19.4 66 66 E 10 17 30.22 1024 7 11.26538 0.001 0.001
4:54 pm 16:54 Cloudy with Haze 5 -15 -3 -19.4 69 69 E 12 19 30.24 1024 4 6.43736 0 0
5:19 pm 17:19 Cloudy with Light Snow 4 -15.6 -3 -19.4 73 73 E 13 20 30.31 1026 2.5 4.02335 0.001 0.001
5:40 pm 17:40 Cloudy with Light Snow 4 -15.6 -3 -19.4 73 73 E 10 17 30.32 1027 1 1.60934 0.001 0.001
5:54 pm 17:54 Cloudy with Light Snow 4 -15.6 -3 -19.4 73 73 E 10 17 30.26 1025 1 1.60934 0.001 0.001
6:40 pm 18:40 Cloudy with Light Snow 4 -15.6 -2 -18.9 76 76 ENE 10 17 30.33 1027 2.5 4.02335 0.01 0.254
6:47 pm 18:47 Cloudy with Light Snow 4 -15.6 -2 -18.9 76 76 ENE 10 17 30.34 1028 4 6.43736 0.01 0.254
6:54 pm 18:54 Cloudy with Light Snow 4 -15.6 -2 -18.9 76 76 E 12 19 30.29 1026 5 8.0467 0.01 0.254
7:54 pm 19:54 Cloudy 4 -15.6 -3 -19.4 73 73 ENE 10 17 30.3 1026 7 11.26538 0.001 0.001
8:54 pm 20:54 Cloudy 4 -15.6 -3 -19.4 73 73 ENE 9 15 30.32 1027 10 16.0934 0.001 0.001
9:54 pm 21:54 Cloudy with Light Snow 3 -16.1 -4 -20 72 72 ENE 12 19 30.34 1028 8 12.87472 0.001 0.001
10:54 pm 22:54 Cloudy 3 -16.1 -4 -20 72 72 ENE 10 17 30.33 1027 10 16.0934 0.001 0.001
11:54 pm 23:54 Cloudy 3 -16.1 -5 -20.6 69 69 NE 9 15 30.35 1028 10 16.0934 0 0

Powered by AerisWeather